N5RML-1 Weather Reports


Display with metric or nautical units.
time (UTC)temp
F
wind
direction
speed
MPH
gust
MPH
rain 1hr
in
rain 24hr
in
rain mn
in
humidity
%
barometer
mb
20260507130525 78 186 4.0 6.0 0.00 0.00 0.00 89 1015.0
20260507125532 78 169 3.0 5.0 0.00 0.00 0.00 89 1014.9
20260507124521 78 175 3.0 4.0 0.00 0.00 0.00 90 1014.7
20260507123528 78 200 4.0 7.0 0.00 0.00 0.00 90 1014.6
20260507122538 78 195 3.0 5.0 0.00 0.00 0.00 90 1014.5
20260507121525 78 182 3.0 5.0 0.00 0.00 0.00 90 1014.5
20260507120534 77 201 2.0 4.0 0.00 0.00 0.00 90 1014.4
20260507115524 77 196 4.0 5.0 0.00 0.00 0.00 90 1014.2
20260507114532 77 160 4.0 7.0 0.00 0.00 0.00 90 1013.9
20260507113521 77 169 3.0 7.0 0.00 0.00 0.00 90 1013.9
20260507112527 77 160 3.0 4.0 0.00 0.00 0.00 90 1013.7
20260507111536 77 183 3.0 5.0 0.00 0.00 0.00 89 1013.5
20260507110525 77 180 4.0 6.0 0.00 0.00 0.00 89 1013.4
20260507105533 78 156 3.0 5.0 0.00 0.00 0.00 89 1013.3
20260507104606 78 169 3.0 5.0 0.00 0.00 0.00 89 1013.4
20260507103532 78 159 2.0 3.0 0.00 0.00 0.00 89 1013.3
20260507102521 78 168 3.0 6.0 0.00 0.00 0.00 89 1013.2
20260507101529 78 165 3.0 5.0 0.00 0.00 0.00 88 1013.0
20260507100536 78 175 2.0 3.0 0.00 0.00 0.00 88 1013.2
20260507095525 78 188 2.0 4.0 0.00 0.00 0.00 88 1013.0
20260507094534 78 168 1.0 3.0 0.00 0.00 0.00 88 1012.9
20260507093524 78 157 2.0 4.0 0.00 0.00 0.00 88 1012.9
20260507092532 78 194 3.0 4.0 0.00 0.00 0.00 88 1012.9
20260507091521 78 235 2.0 7.0 0.00 0.00 0.00 88 1012.9
20260507090528 78 189 3.0 5.0 0.00 0.00 0.00 88 1013.0
20260507085536 78 159 2.0 5.0 0.00 0.00 0.00 88 1012.9
20260507084525 78 183 4.0 7.0 0.00 0.00 0.00 88 1012.8
20260507083533 78 146 2.0 3.0 0.00 0.00 0.00 88 1012.8
20260507082523 78 96 3.0 4.0 0.00 0.00 0.00 88 1012.8
20260507081532 78 200 4.0 8.0 0.00 0.00 0.00 88 1012.9
20260507080520 78 229 4.0 8.0 0.00 0.00 0.00 88 1013.0
20260507075528 78 160 2.0 5.0 0.00 0.00 0.00 88 1013.0
20260507074539 78 183 3.0 4.0 0.00 0.00 0.00 88 1013.0
20260507073525 78 174 2.0 4.0 0.00 0.00 0.00 88 1013.1
20260507072533 78 192 5.0 10.0 0.00 0.00 0.00 88 1013.1
20260507071603 78 185 4.0 7.0 0.00 0.00 0.00 88 1013.0
20260507070759 78 180 2.0 3.0 0.00 0.00 0.00 88 1012.9
20260507070531 78 175 5.0 8.0 0.00 0.00 0.00 88 1012.9
20260507065520 78 173 5.0 8.0 0.00 0.00 0.00 88 1013.1
20260507064528 78 150 4.0 7.0 0.00 0.00 0.00 88 1013.1
20260507063537 78 156 5.0 7.0 0.00 0.00 0.00 88 1013.1
20260507062525 78 154 5.0 6.0 0.00 0.00 0.00 87 1013.1
20260507061533 78 177 5.0 9.0 0.00 0.00 0.00 87 1013.1
20260507060522 78 200 6.0 9.0 0.00 0.00 0.00 87 1013.1
20260507055532 79 168 5.0 8.0 0.00 0.00 0.00 87 1013.1
20260507054520 79 158 6.0 10.0 0.00 0.00 0.00 87 1013.2
20260507053528 79 147 6.0 9.0 0.00 0.00 0.00 87 1013.3
20260507052535 79 165 5.0 7.0 0.00 0.00 0.00 87 1013.2
20260507051528 79 149 5.0 8.0 0.00 0.00 0.00 86 1013.1
20260507050533 79 167 6.0 9.0 0.00 0.00 0.00 86 1013.1
20260507045523 79 146 5.0 10.0 0.00 0.00 0.00 86 1012.9
20260507044530 79 163 6.0 10.0 0.00 0.00 0.00 86 1013.0
20260507043519 79 157 6.0 10.0 0.00 0.00 0.00 86 1013.1
20260507042527 79 169 7.0 11.0 0.00 0.00 0.00 86 1012.9
20260507041555 79 167 6.0 9.0 0.00 0.00 0.00 86 1012.8
20260507040524 79 143 7.0 12.0 0.00 0.00 0.00 85 1012.9
20260507035532 79 170 6.0 9.0 0.00 0.00 0.00 85 1013.0
20260507034523 79 155 6.0 9.0 0.00 0.00 0.00 85 1013.2
20260507033529 79 168 7.0 11.0 0.00 0.00 0.00 85 1013.0
20260507032537 79 169 8.0 12.0 0.00 0.00 0.00 85 1013.0
20260507031526 80 157 6.0 8.0 0.00 0.00 0.00 85 1013.2
20260507030534 80 159 6.0 8.0 0.00 0.00 0.00 85 1013.2
20260507025523 80 156 7.0 9.0 0.00 0.00 0.00 85 1013.2
20260507024532 80 169 6.0 11.0 0.00 0.00 0.00 85 1013.3
20260507023521 80 160 6.0 10.0 0.00 0.00 0.00 85 1013.5
20260507022529 80 152 6.0 9.0 0.00 0.00 0.00 85 1013.3
20260507021538 80 133 7.0 11.0 0.00 0.00 0.00 84 1013.2
20260507020528 80 155 6.0 9.0 0.00 0.00 0.00 84 1013.1
20260507015535 80 169 8.0 10.0 0.00 0.00 0.00 84 1012.8
20260507014526 80 152 7.0 10.0 0.00 0.00 0.00 83 1012.8
20260507013531 80 146 7.0 9.0 0.00 0.00 0.00 83 1012.6
20260507012520 80 157 7.0 12.0 0.00 0.00 0.00 82 1012.7
20260507011529 81 157 8.0 11.0 0.00 0.00 0.00 81 1012.8
20260507010536 81 174 6.0 11.0 0.00 0.00 0.00 81 1012.7
20260507005525 81 159 5.0 11.0 0.00 0.00 0.00 80 1012.6
20260507004533 81 168 6.0 8.0 0.00 0.00 0.00 79 1012.4
20260507003523 81 182 5.0 8.0 0.00 0.00 0.00 78 1012.4
20260507002531 82 152 7.0 10.0 0.00 0.00 0.00 78 1012.3
20260507001520 82 140 7.0 12.0 0.00 0.00 0.00 77 1012.3
20260507000528 82 148 8.0 12.0 0.00 0.00 0.00 76 1012.3
20260506235535 82 169 5.0 8.0 0.00 0.00 0.00 76 1012.2
20260506234526 82 166 7.0 10.0 0.00 0.00 0.00 76 1012.4
20260506233533 83 168 7.0 11.0 0.00 0.00 0.00 75 1012.3
20260506232523 83 160 6.0 8.0 0.00 0.00 0.00 73 1012.1
20260506231530 84 147 8.0 12.0 0.00 0.00 0.00 73 1012.1
20260506230519 84 142 6.0 12.0 0.00 0.00 0.00 72 1012.0
20260506225529 84 135 8.0 10.0 0.00 0.00 0.00 71 1012.1
20260506224535 85 167 9.0 17.0 0.00 0.00 0.00 70 1012.2
20260506223545 86 159 5.0 8.0 0.00 0.00 0.00 69 1012.2
20260506222532 86 153 6.0 11.0 0.00 0.00 0.00 68 1012.3
20260506221541 87 155 8.0 12.0 0.00 0.00 0.00 67 1012.4
20260506220529 87 153 7.0 10.0 0.00 0.00 0.00 67 1012.5
20260506215538 86 168 7.0 9.0 0.00 0.00 0.00 68 1012.5
20260506214526 87 159 8.0 12.0 0.00 0.00 0.00 67 1012.5
20260506213534 88 142 8.0 12.0 0.00 0.00 0.00 67 1012.6
20260506212543 87 181 7.0 11.0 0.00 0.00 0.00 68 1012.7
20260506211530 87 175 6.0 10.0 0.00 0.00 0.00 67 1012.8
20260506210520 88 158 6.0 13.0 0.00 0.00 0.00 68 1012.7
20260506205527 87 151 7.0 12.0 0.00 0.00 0.00 69 1012.8
20260506204717 87 188 8.0 11.0 0.00 0.00 0.00 69 1012.9
20260506203524 88 158 7.0 10.0 0.00 0.00 0.00 68 1013.1
20260506202532 88 159 7.0 10.0 0.00 0.00 0.00 66 1013.1
20260506201521 89 180 6.0 11.0 0.00 0.00 0.00 66 1013.4
20260506200532 88 161 6.0 9.0 0.00 0.00 0.00 67 1013.5
20260506195538 88 181 5.0 10.0 0.00 0.00 0.00 66 1013.7
20260506194527 87 179 8.0 9.0 0.00 0.00 0.00 66 1013.9
20260506193535 88 178 7.0 11.0 0.00 0.00 0.00 65 1014.0
20260506192523 87 161 8.0 15.0 0.00 0.00 0.00 67 1014.2
20260506191531 87 177 7.0 10.0 0.00 0.00 0.00 67 1014.5
20260506190520 87 165 7.0 11.0 0.00 0.00 0.00 67 1014.6
20260506185529 86 176 6.0 10.0 0.00 0.00 0.00 69 1014.6
20260506184537 86 144 7.0 11.0 0.00 0.00 0.00 69 1014.9
20260506183546 86 189 4.0 7.0 0.00 0.00 0.00 70 1015.0
20260506182533 86 174 7.0 9.0 0.00 0.00 0.00 70 1015.1
20260506181525 86 144 7.0 11.0 0.00 0.00 0.00 69 1015.0
20260506180530 86 172 7.0 11.0 0.00 0.00 0.00 70 1015.0
20260506175520 86 179 5.0 8.0 0.00 0.00 0.00 71 1015.1
20260506174548 85 166 5.0 11.0 0.00 0.00 0.00 73 1015.3
20260506173535 85 164 6.0 9.0 0.00 0.00 0.00 75 1015.3
20260506172525 83 155 6.0 10.0 0.00 0.00 0.00 79 1015.5
20260506171535 82 152 5.0 8.0 0.00 0.00 0.00 82 1015.7
20260506170522 83 170 5.0 7.0 0.00 0.00 0.00 77 1015.6
20260506165530 83 163 5.0 9.0 0.00 0.00 0.00 77 1015.6
20260506164559 83 173 5.0 8.0 0.00 0.00 0.00 77 1015.5
20260506163528 83 153 5.0 9.0 0.00 0.00 0.00 76 1015.4
20260506162536 84 146 4.0 6.0 0.00 0.00 0.00 76 1015.3
20260506161525 83 144 5.0 10.0 0.00 0.00 0.00 76 1015.0
20260506160533 83 166 5.0 8.0 0.00 0.00 0.00 77 1015.2
20260506155524 83 207 4.0 8.0 0.00 0.00 0.00 78 1015.1
20260506154531 82 170 4.0 11.0 0.00 0.00 0.00 79 1015.1
20260506153520 82 179 5.0 9.0 0.00 0.00 0.00 79 1015.0
20260506152527 82 165 6.0 12.0 0.00 0.00 0.00 79 1014.9
20260506151535 82 194 7.0 9.0 0.00 0.00 0.00 79 1014.9
20260506150545 82 184 5.0 12.0 0.00 0.00 0.00 80 1014.9
20260506145533 81 152 6.0 9.0 0.00 0.00 0.00 81 1014.8
20260506144522 81 162 5.0 7.0 0.00 0.00 0.00 81 1014.9
20260506143530 81 184 5.0 7.0 0.00 0.00 0.00 82 1014.8
20260506142519 80 166 4.0 6.0 0.00 0.00 0.00 83 1014.6
20260506141527 80 151 6.0 9.0 0.00 0.00 0.00 84 1014.4
20260506140536 79 167 5.0 9.0 0.00 0.00 0.00 85 1014.3
20260506135525 79 159 6.0 8.0 0.00 0.00 0.00 86 1014.4
20260506134533 78 143 4.0 6.0 0.00 0.00 0.00 87 1014.5
20260506133542 78 149 5.0 6.0 0.00 0.00 0.00 88 1014.5
20260506132550 77 154 5.0 9.0 0.00 0.00 0.00 89 1014.5
20260506131519 76 155 4.0 6.0 0.00 0.00 0.00 90 1014.3